Regional Weather Roundup
Issued by NWS Green Bay, WI

Home | Current Version | Previous Version | Graphics & Text | Print | Product List | Glossary Off
Versions: 1 2 3 4 5 6 7 8 9 10 11 12 13 14 15 16 17 18 19 20 21 22 23 24 25 26 27 28 29 30 31 32 33 34 35 36 37 38 39 40 41 42 43 44 45 46 47 48 49 50

000
ASUS43 KGRB 260310
RWRGRB

NORTH-CENTRAL AND NORTHEAST WISCONSIN REGIONAL WEATHER ROUNDUP
NATIONAL WEATHER SERVICE GREEN BAY WI
1000 PM CDT FRI JUL 25 2014

WIZ005-009-010>012-018-019-260400-
NORTH CENTRAL WISCONSIN

CITY           SKY/WX    TMP DP  RH WIND       PRES   REMARKS
IRONWOOD       NOT AVBL
MANITOWISH WTR CLOUDY    65  64  96 SW7       29.83F
ARBOR VITAE    MOCLDY    64  62  91 S5        29.84S
EAGLE RIVER    CLOUDY    64  62  93 CALM      29.84S
LAND O LAKES   CLOUDY    65  63  91 S5        29.84F
RHINELANDER    CLOUDY    64  62  93 SW8       29.86S
PHILLIPS       CLOUDY    65  64  94 S5        29.83S
ANTIGO         CLOUDY    62  61  97 S5        29.87S
TOMAHAWK       CLOUDY    64  61  90 CALM      29.86S
MERRILL        CLOUDY    65  63  93 S3        29.85F
$$

WIZ013-073-260400-
NORTHEAST WISCONSIN

CITY           SKY/WX    TMP DP  RH WIND       PRES   REMARKS
IRON MOUNTAIN  CLOUDY    66  61  84 SE5       29.83S
MARINETTE      MOCLDY    66  59  77 SW5       29.84S
OCONTO         PTCLDY    67  61  82 S3        29.84F
$$

WIZ017-030-035>037-045-260400-
CENTRAL WISCONSIN

CITY           SKY/WX    TMP DP  RH WIND       PRES   REMARKS
MEDFORD        CLOUDY    65  62  91 S8        29.85S
WAUSAU         MOCLDY    66  62  87 S7        29.84F
MOSINEE        CLOUDY    64  63  94 S7        29.87F
MARSHFIELD     CLEAR     65  62  90 S7        29.85F
WISC RAPIDS    CLEAR     67  62  84 S6        29.87F
STEVENS POINT  CLOUDY    65  60  84 S8        29.87F
WAUPACA        CLOUDY    69  63  79 CALM      29.88F
SHAWANO        CLOUDY    69  62  78 S3        29.86F
CLINTONVILLE   CLOUDY    68  61  77 S5        29.86F
$$

WIZ038-039-048-051-260400-
FOX VALLEY

CITY           SKY/WX    TMP DP  RH WIND       PRES   REMARKS
NWS GREEN BAY  MOCLDY    66  61  84 S5        29.87F
APPLETON       CLOUDY    68  61  77 S7        29.89S
OSHKOSH        CLOUDY    69  62  78 S8        29.89S
FOND DU LAC    CLOUDY    69  61  75 SW7       29.90S
$$

WIZ022-050-052-260400-
EAST CENTRAL WISCONSIN

CITY           SKY/WX    TMP DP  RH WIND       PRES   REMARKS
STURGEON BAY   MOCLDY    63  57  82 S7        29.87F
MANITOWOC      CLOUDY    66  59  78 SW5       29.89S
SHEBOYGAN      CLOUDY    66  59  78 S7        29.90R
$$

LMZ563-521-522-541>543-260400-
LAKESHORE

STATION/POSITION TIME  TEMP    WIND        PRES    VSBY  WAVE
                       AIR SEA DIR/SP/G                  HT/PER
                 (UTC) (F)     (DEG/KT/KT) (MB)    (MI)  (FT/S)
SHEBOYGAN LKSHOR 0300   65     190/  9/  9 1012.5R
KEWAUNEE LKSHORE 0300   55     180/  8/  9 1012.4S
TWO RIVERS CG    0300   57                   N/A     3/8   2
NORTHPORT PIER   0300   63     160/  4/  9 1010.8F
N MID LAKE BUOY  0300   59 55  200/ 12/ 14 1010.5S         2/ 4
CHAMBERS ISLAND  0300   69     180/  3/  7 1010.8F
MENOMINEE LKSHOR 0300   70     190/  5/  7 1011.5
$$


USA.gov is the U.S. government's official web portal to all federal, state and local government web resources and services.